Renton, WA
on Sunday, February 10, 2013

Sunday
Previous Day Next Day
Daily Summary
 ActualAverage (KSEA)Record (KSEA)
Temperature
Mean Temperature °F 43°F  
Max Temperature 46°F 49°F 65°F (1963)
Min Temperature 35°F 37°F 24°F (1982)
Degree Days
Heating Degree Days 24 22  
Month to date heating degree days 220  
Since 1 July heating degree days 2869  
Cooling Degree Days 0 0  
Month to date cooling degree days 0  
Year to date cooling degree days 0  
Moisture
Dew Point 38°F   
Average Humidity 89    
Maximum Humidity 100    
Minimum Humidity 68    
Precipitation
Precipitation 0.00 in 0.13 in 0.96 in (1949)
Month to date precipitation 1.33  
Year to date precipitation 6.90  
Snow
Snow 0.00 in in 5.10 in (1959)
Month to date snowfall  
Since 1 July snowfall  
Snow Depth in   
Wind
Wind Speed 1 mph   
Max Wind Speed 9 mph   
Max Gust Speed mph   
Visibility 7 miles   
Events Fog   

Key: T is trace of precipitation, MM is missing value
Source: NWS Daily Summary
Time(PST)TemperatureDew PointHumidity Pressure Visibility Wind DirectionWind SpeedGust SpeedPrecipitationEvents Conditions
12:34 AM 42.8°F 42.8°F 100% 30.35 in 5.0 miles Calm Calm - N/A   Overcast
12:44 AM 42.8°F 41.0°F 93% 30.35 in 5.0 miles Calm Calm - N/A   Overcast
12:53 AM 43.0°F 41.0°F 93% 30.36 in 5.0 miles Calm Calm - N/A   Overcast
1:05 AM 42.8°F 41.0°F 93% 30.35 in 6.0 miles Calm Calm - N/A   Overcast
1:20 AM 42.8°F 41.0°F 93% 30.35 in 5.0 miles NNW 3.5 mph - N/A   Overcast
1:27 AM 42.8°F 41.0°F 93% 30.35 in 5.0 miles NNW 5.8 mph - N/A   Overcast
1:42 AM 42.8°F 41.0°F 93% 30.35 in 5.0 miles NNW 4.6 mph - N/A   Overcast
1:53 AM 43.0°F 41.0°F 93% 30.36 in 5.0 miles NNW 3.5 mph - N/A   Overcast
2:53 AM 42.1°F 39.9°F 92% 30.37 in 8.0 miles Variable 3.5 mph - N/A   Overcast
3:53 AM 39.9°F 37.9°F 93% 30.36 in 10.0 miles Calm Calm - N/A   Partly Cloudy
4:53 AM 37.9°F 37.0°F 97% 30.37 in 8.0 miles Calm Calm - N/A   Mostly Cloudy
5:53 AM 36.0°F 35.1°F 97% 30.37 in 5.0 miles Calm Calm - N/A   Clear
6:11 AM 35.6°F 35.6°F 100% 30.35 in 4.0 miles Calm Calm - N/A   Partly Cloudy
6:28 AM 35.6°F 35.6°F 100% 30.36 in 5.0 miles Calm Calm - N/A   Mostly Cloudy
6:53 AM 35.1°F 35.1°F 100% 30.38 in 6.0 miles Calm Calm - N/A   Overcast
7:53 AM 36.0°F 35.1°F 97% 30.39 in 7.0 miles Calm Calm - N/A   Overcast
8:27 AM 37.4°F 37.4°F 100% 30.38 in 2.0 miles Calm Calm - N/A   Overcast
8:36 AM 37.4°F 35.6°F 93% 30.38 in 1.2 miles East 3.5 mph - N/A   Overcast
8:48 AM 37.4°F 37.4°F 100% 30.38 in 0.5 miles East 3.5 mph - N/A Fog Fog
8:53 AM 36.0°F 36.0°F 100% 30.39 in 0.2 miles Calm Calm - N/A Fog Fog
9:53 AM 37.0°F 37.0°F 100% 30.40 in 2.5 miles Calm Calm - N/A   Overcast
10:53 AM 39.0°F 37.0°F 93% 30.40 in 5.0 miles Calm Calm - N/A   Overcast
11:15 AM 39.2°F 37.4°F 93% 30.38 in 5.0 miles Calm Calm - N/A   Scattered Clouds
11:53 AM 39.9°F 37.9°F 93% 30.38 in 8.0 miles NNW 5.8 mph - N/A   Clear
11:57 AM 41.0°F 39.2°F 93% 30.37 in 8.0 miles NNW 5.8 mph - N/A   Partly Cloudy
12:53 PM 45.0°F 37.9°F 76% 30.38 in 10.0 miles NNW 3.5 mph - N/A   Clear
1:53 PM 46.0°F 37.0°F 71% 30.36 in 10.0 miles NNW 3.5 mph - N/A   Clear
2:53 PM 46.0°F 36.0°F 68% 30.36 in 10.0 miles NW 3.5 mph - N/A   Partly Cloudy
3:53 PM 46.0°F 36.0°F 68% 30.37 in 10.0 miles WNW 9.2 mph - N/A   Clear
4:53 PM 44.1°F 37.0°F 76% 30.37 in 10.0 miles WNW 5.8 mph - N/A   Overcast
5:53 PM 44.1°F 37.0°F 76% 30.36 in 10.0 miles Calm Calm - N/A   Overcast
6:53 PM 44.1°F 37.0°F 76% 30.36 in 10.0 miles Calm Calm - N/A   Overcast
7:53 PM 44.6°F 37.4°F 76% 30.35 in 10.0 miles Calm Calm - N/A   Overcast
8:53 PM 44.1°F 37.9°F 79% 30.36 in 10.0 miles Calm Calm - N/A   Overcast
9:53 PM 43.0°F 37.0°F 80% 30.35 in 10.0 miles Calm Calm - N/A   Overcast
10:53 PM 43.0°F 37.9°F 82% 30.35 in 10.0 miles Calm Calm - N/A   Overcast
11:53 PM 43.0°F 37.9°F 82% 30.36 in 10.0 miles NNW 3.5 mph - N/A   Overcast
Moon Phase
Feb. 10 Feb. 17 Feb. 25 Mar. 04 Mar. 11
Sunrise:07:21 AM (PST) Moon Rise:07:08 AM (PST)2/10
Sunset:05:25 PM (PST) Moon Set:06:29 PM (PST)2/10

Copyright © 2014 The Weather Underground, Inc.